User: anonymous   Login
Location: Caltech
(34.1382°N, 118.1253°W)
Time: 07:23:35
(UTC-07:00)
Language:

Cosmos 1937 Rocket - Orbit

View from above orbital plane
View from above orbital plane
View from above satellite
View from above satellite

Ground track
Ground track

The orbit data is extracted from the following two-line orbital elements,

1 19039U 88029B   14302.14196819  .00000521  00000-0  18007-3 0  1694
2 19039 074.0483 270.7470 0024895 320.3429 123.3407 14.38064676392546
Epoch (UTC): 29 October 2014 03:24:26
Eccentricity: 0.0024895
inclination: 74.0483°
perigee height: 747 km
apogee height: 782 km
right ascension of ascending node: 270.7470°
argument of perigee: 320.3429°
revolutions per day: 14.38064676
mean anomaly at epoch: 123.3407°
orbit number at epoch: 39254

The dashed part of the orbit path shows where the satellite is in the earth's shadow,  

DLR